Regional Weather Roundup
Issued by NWS Wilmington, NC

Home | Current Version | Previous Version | Text Only | Print | Product List | Glossary On
Versions: 1 2 3 4 5 6 7 8 9 10 11 12 13 14 15 16 17 18 19 20 21 22 23 24 25 26 27 28 29 30 31 32 33 34 35 36 37 38 39 40 41 42 43 44 45 46 47 48 49 50
000
ASUS42 KILM 230913
RWRILM
RWRILM
REGIONAL HOURLY WEATHER ROUNDUP
NATIONAL WEATHER SERVICE WILMINGTON NC
500 AM EDT WED MAY 23 2018

NOTE: "FAIR" INDICATES FEW OR NO CLOUDS BELOW 12,000 FEET WITH NO
SIGNIFICANT WEATHER AND/OR OBSTRUCTIONS TO VISIBILITY.

...............WFO WILMINGTON COUNTY WARNING AREA...............

......COASTAL NC AND SC COUNTIES......

CITY           SKY/WX    TMP DP  RH WIND       PRES   REMARKS
WILMINGTON     MOCLDY    72  69  90 S3        30.07S
N MYRTLE BEACH FAIR      73  71  93 SW7       30.07R
MYRTLE BEACH   FAIR      73  71  93 S3        30.08S

......INLAND NC AND SC COUNTIES.......

CITY           SKY/WX    TMP DP  RH WIND       PRES   REMARKS
LUMBERTON      FAIR      70  68  93 S3        30.05F
ELIZABETHTOWN  FAIR      69  68  95 S5        30.07S
WHITEVILLE     FAIR      69  68  97 CALM      30.07S
FLORENCE       CLOUDY    71  69  93 S3        30.06S
DARLINGTON       N/A     72  70  93 SW8       30.07R
KINGSTREE      MOCLDY    68  66  94 CALM      30.06S
HARTSVILLE     CLOUDY    68  68 100 CALM      30.06R FOG
BENNETTSVILLE  CLOUDY    72  72 100 CALM      30.06R
CONWAY         FAIR      64  64 100 CALM      30.07S
GEORGETOWN     FAIR      68  64  88 CALM      30.08S
MARION         FAIR      68  68 100 CALM      30.07R

....................REST OF NORTH CAROLINA......................

.........EASTERN NC.........

CITY           SKY/WX    TMP DP  RH WIND       PRES   REMARKS
CAPE HATTERAS  FAIR      73  71  93 SW9       30.06R
JACKSONVILLE   FAIR      69  69 100 S7        30.07S
MOREHEAD CITY  FAIR      73  72  96 SW13      30.07S
KENANSVILLE    FAIR      68  68 100 CALM      30.07S
NEW BERN       FAIR      69  69 100 SW7       30.07R
ELIZABETH CITY FAIR      72  71  97 SW13      30.01S

.........CENTRAL NC.........

CITY           SKY/WX    TMP DP  RH WIND       PRES   REMARKS
RALEIGH DURHAM MOCLDY    69  67  93 SW9       30.04S
ROCKY MOUNT    FAIR      70  69  97 S8        30.03F
ROANOKE RAPIDS NOT AVBL
FAYETTEVILLE   FAIR      69  67  93 SW5       30.05S
HOFFMAN        MOCLDY    67  66  96 CALM      30.06S

.........WESTERN NC.........

CITY           SKY/WX    TMP DP  RH WIND       PRES   REMARKS
CHARLOTTE      CLOUDY    71  69  93 SW12      30.06S
GREENSBORO     MOCLDY    69  67  93 SW7       30.04S
HICKORY        NOT AVBL
BOONE          NOT AVBL
ASHEVILLE      NOT AVBL

.....................REST OF SOUTH CAROLINA.....................

.........EASTERN SC.........

CITY           SKY/WX    TMP DP  RH WIND       PRES   REMARKS
CHARLESTON     FAIR      71  70  96 S6        30.06F
BEAUFORT MCAS  FAIR      76  73  91 S7        30.07S
HILTON HEAD    MOCLDY    75  72  88 S8        30.08S

.........CENTRAL SC.........

CITY           SKY/WX    TMP DP  RH WIND       PRES   REMARKS
COLUMBIA       MOCLDY    70  69  97 CALM      30.05R
ORANGEBURG     CLOUDY    71  69  93 SW6       30.06S
SUMTER SHAW    CLOUDY    72  70  94 SW9       30.04R

.........WESTERN SC.........

CITY           SKY/WX    TMP DP  RH WIND       PRES   REMARKS
GREENVILLE     NOT AVBL
ROCK HILL      MOCLDY    70  68  93 SW5       30.06S
ANDERSON       CLOUDY    69  67  93 CALM      30.07R
CLEMSON        NOT AVBL
GREENWOOD      CLOUDY    69  69 100 SW3       30.08R


...................COASTAL AND OFFSHORE REPORTS..................

................LOCAL PIERS AND NC RESERVE................


STATION/POSITION TIME  SKY/WX   TEMP    WIND        PRES    VSBY
                                AIR SEA DIR/SP/G
                 (UTC)          (F)     (DEG/KT/KT) (MB)    (MI)
JOHNY MRCER PIER 0836            73 71  230/  4/  5 1018.7R
NC RESRV MASNBRO NOT AVBL
OCEAN CREST PIER NOT AVBL
SPRINGMAID  PIER 0836                               1021.4S


................COASTAL AND OFFSHORE BUOYS................


STATION/POSITION TIME  SKY/WX   TEMP    WIND        PRES    VSBY
                                AIR SEA DIR/SP/G
                 (UTC)          (F)     (DEG/KT/KT) (MB)    (MI)
DIMNDSHOAL 41025 0900            75 74  240/ 16/ 19 1018.1
CAPE LOOKOUT     0900                   230/  8/ 10 1018.5F
ONSLOW BAY 41036 NOT AVBL
ONSLOW BAY 41064 0808            75     210/ 12/ 16 1018.4R
ONSLOW BAY 41159 0900               75                N/A
WVE H/P(F/S)=  4/ 8

MASNBO INL 41110 0900               72                N/A
WVE H/P(F/S)=  3/ 9

WILM HARBR 41108 NOT AVBL
27SE WRITB 41037 0808            74 75  220/ 10/ 14 1018.6R
FRYING PAN 41013 0900            75 76  220/ 14/ 16 1018.6
SUNST NRSH 41024 0808            75 76  230/ 10/ 14 1017.9R
CAPRS NRSH 41029 0808            76 78  230/ 14/ 17 1018.9S
EDISTO     41004 0850               74  210/ 10/ 10 1018.3S
WVE H/P(F/S)=  4/ 9 SWL H/P/D(F/S/D)=  3/130/ 9



..........OFFSHORE BUOYS BEYOND 100 NM OFFSHORE...........
.....IN A TRIANGLE---HAT TO BERMUDA TO BAHAMAS TO HAT.....


STATION/POSITION TIME  SKY/WX   TEMP    WIND        PRES    VSBY
                                AIR SEA DIR/SP/G
                 (UTC)          (F)     (DEG/KT/KT) (MB)    (MI)
150E HAT   41001 NOT AVBL
W BERMUDA  41048 0850               76  200/  8/ 10 1021.8F
WVE H/P(F/S)=  3/ 8 SWL H/P/D(F/S/D)=  3/130/ 8

ATLANTIC S 41049 0850               77  100/ 10/ 14 1023.2S
E BAHAMAS  41046 0850            78 79  110/ 17/ 21 1020.3R
WVE H/P(F/S)=  7/ 8 SWL H/P/D(F/S/D)=  3/100/ 8

NE BAHAMAS 41047 0850                   150/ 10/ 16 1020.8R
WVE H/P(F/S)=  4/ 8 SWL H/P/D(F/S/D)=  3/130/ 8

120E CANVRL41010 0850            77 78  120/  8/ 10 1019.2R
WVE H/P(F/S)=  4/ 9 SWL H/P/D(F/S/D)=  3/110/ 9


END



USA.gov is the U.S. government's official web portal to all federal, state and local government web resources and services.